Temp
39 41 43 43 44 44 44 45 45 46 47 49 51 54 57 60 63 62 62 62 60 59 60 59 58 59 58 59 59 58 56 56 53 57 61 61 56 56 53 52 54 54 54
37 39 40 41 41 40 40 41 43 43 44 45 47 49 52 54 57 60 61 61 60 59 60 59 58 59 58 58 58 57 57 57 55 53 57 59 55 55 57 53 51 50 53
34 35 36 37 37 37 37 38 40 40 40 42 43 45 47 49 52 54 57 60 61 61 61 60 59 59 57 58 58 57 57 57 56 55 55 58 59 50 49 48 49 49 46
31 32 32 34 33 33 34 35 36 37 38 39 41 42 43 45 48 51 52 52 54 58 61 61 61 59 59 58 58 57 57 56 56 55 55 55 54 44 50 49 38 38 44
28 29 29 30 30 30 31 32 33 34 35 37 38 39 41 43 46 44 44 45 47 50 53 59 61 57 50 54 58 58 57 56 55 54 53 54 42 36 46 46 49 47 43
26 27 27 26 26 27 27 28 29 30 32 33 34 37 38 41 41 41 41 42 43 44 47 52 57 49 49 46 47 50 57 57 54 54 54 53 52 50 50 50 48 37 37
25 24 24 24 24 24 25 25 26 26 28 29 31 34 36 39 40 40 39 40 41 42 44 47 50 55 50 56 51 46 47 49 52 58 54 54 53 52 51 45 46 45 48
22 22 22 22 21 22 23 23 24 25 26 27 29 32 33 37 39 39 39 40 41 42 43 44 45 48 52 51 55 56 56 52 51 52 54 57 57 56 51 50 49 46 36
20 20 21 20 20 21 21 22 24 24 26 28 30 31 33 35 38 39 39 40 40 40 42 44 44 44 44 44 47 48 52 53 52 48 50 52 52 50 51 48 40 39 37
18 19 20 20 20 20 21 22 23 25 27 28 28 30 31 33 37 38 38 38 37 38 39 41 40 42 42 42 43 45 45 49 48 40 44 47 48 49 44 49 46 42 41
17 17 17 18 19 22 21 22 23 24 24 24 26 27 29 30 32 35 35 33 32 33 36 38 39 41 41 42 42 42 42 44 45 45 45 47 46 46 47 46 49 47 42
14 14 14 16 18 20 19 21 22 22 21 22 23 24 27 29 30 31 32 31 33 30 31 35 38 40 40 41 40 41 41 41 41 43 44 46 46 44 44 44 45 44 49
9 9 12 15 17 18 18 19 18 20 20 20 21 21 22 25 26 28 28 30 30 29 30 32 35 37 39 39 40 41 38 39 40 40 42 44 46 45 41 37 35 35 34
6 9 12 13 13 16 17 18 17 17 18 20 19 19 19 21 22 24 25 25 26 27 28 29 31 35 37 38 36 38 38 39 40 42 43 44 41 36 38 38 36 36 35
6 8 9 11 11 12 14 15 16 19 21 19 18 19 18 16 21 25 25 23 22 24 22 24 27 31 34 36 37 37 38 38 38 40 40 40 38 36 36 36 37 35 36
2 5 6 7 9 10 10 10 16 19 21 22 22 20 20 22 24 24 24 24 23 23 16 14 15 16 18 19 23 35 37 36 37 38 38 38 37 35 36 35 36 35 36
-2 1 3 5 6 5 6 6 4 10 16 17 18 18 20 19 21 22 22 20 19 17 11 11 11 12 13 15 16 19 22 35 36 36 36 37 36 35 35 34 34 34 35
-7 -2 1 2 2 3 3 4 4 3 2 4 11 14 15 17 17 18 18 13 7 9 8 7 8 10 10 11 12 14 17 19 30 35 35 35 35 35 34 34 34 34 35
-6 -3 -2 -1 -0 0 1 2 1 1 1 1 3 6 6 13 13 12 12 4 2 2 3 4 5 8 8 9 10 12 14 15 18 22 33 34 34 34 34 34 34 34 35
-12 -6 -5 -6 -5 -4 -2 -3 -3 -2 -3 -2 -2 -1 1 4 -1 -1 2 1 0 -0 0 1 2 4 6 6 7 9 11 13 14 16 17 27 33 33 33 33 33 33 33
-15 -13 -9 -10 -11 -8 -7 -7 -6 -6 -6 -6 -5 -2 8 -1 -4 -4 -3 -2 -2 -3 -2 -2 -0 0 3 3 3 6 7 10 12 14 15 17 20 32 33 32 32 33 33
-21 -18 -17 -17 -12 -11 -10 -9 -9 -9 -8 -8 -7 -5 2 -5 -5 -6 -5 -4 -4 -3 -3 -4 -3 -2 0 -0 -0 1 3 3 7 10 14 15 18 23 32 32 32 32 32
-21 -21 -19 -18 -18 -15 -13 -14 -14 -12 -11 -11 -10 -10 -9 -9 -8 -8 -7 -7 -6 -6 -5 -6 -5 -4 -2 -2 -1 -0 -1 1 4 7 14 13 15 20 25 32 32 31 30
-25 -24 -21 -20 -21 -18 -19 -17 -14 -14 -13 -13 -13 -12 -11 -11 -11 -10 -9 -8 -8 -7 -8 -8 -7 -7 -6 -5 -4 -1 -1 1 5 7 14 13 13 16 21 26 29 30 29
-29 -27 -26 -23 -23 -20 -19 -18 -17 -18 -16 -15 -15 -14 -13 -13 -13 -12 -11 -10 -10 -10 -10 -10 -9 -8 -8 -9 -7 -4 -3 1 4 11 13 12 12 14 17 21 24 24 23
-28 -27 -24 -24 -23 -22 -23 -20 -18 -18 -18 -16 -15 -15 -15 -15 -14 -14 -13 -13 -13 -12 -13 -11 -11 -11 -10 -9 -7 -3 -1 4 10 11 12 11 10 11 13 16 20 22 22
MSLP
1021.85 1021.24 1020.54 1019.95 1019.21 1019.06 1018.86 1018.41 1018.03 1017.36 1016.63 1015.92 1015.17 1014.16 1013.17 1012.39 1011.54 1011.21 1010.84 1010.60 1010.51 1010.33 1010.14 1010.06 1009.95 1009.92 1009.77 1009.80 1009.55 1009.49 1009.46 1009.25 1008.21 1008.09 1008.12 1008.34 1008.85 1008.85 1008.93 1009.04 1009.25 1009.55 1009.73
1022.87 1021.93 1021.23 1020.84 1019.86 1019.35 1019.09 1018.68 1018.48 1017.86 1016.95 1016.39 1016.03 1014.85 1013.70 1012.81 1012.02 1011.33 1010.26 1009.81 1009.78 1009.29 1008.96 1008.88 1008.52 1008.64 1008.27 1008.08 1008.07 1007.97 1007.76 1007.55 1007.39 1007.02 1007.08 1007.16 1007.36 1007.65 1007.41 1007.98 1008.29 1008.35 1008.43
1023.30 1022.65 1022.09 1021.29 1020.27 1020.05 1019.93 1018.82 1018.74 1018.37 1017.14 1016.90 1016.33 1015.45 1014.84 1013.67 1012.59 1011.59 1010.79 1009.58 1009.05 1008.11 1007.82 1007.67 1007.12 1007.23 1006.78 1006.55 1006.69 1006.12 1006.07 1005.92 1005.74 1005.52 1005.08 1005.69 1005.73 1006.35 1006.89 1006.87 1007.16 1007.51 1007.29
1023.57 1022.83 1022.20 1021.61 1021.48 1021.21 1020.64 1020.06 1019.58 1018.29 1018.06 1017.23 1016.79 1015.44 1014.98 1014.21 1013.03 1011.86 1011.05 1010.52 1009.49 1007.90 1006.96 1006.33 1005.80 1005.66 1005.35 1004.99 1004.73 1004.73 1004.47 1004.24 1004.27 1004.23 1003.85 1004.14 1004.66 1005.28 1005.43 1005.79 1006.88 1006.70 1006.53
1024.30 1023.78 1023.23 1023.00 1022.68 1022.18 1021.49 1020.91 1020.09 1019.35 1018.28 1017.87 1017.08 1014.98 1014.91 1014.23 1013.06 1012.62 1011.80 1010.65 1009.56 1008.29 1007.34 1006.40 1004.56 1004.07 1003.95 1003.61 1003.65 1003.31 1003.31 1003.05 1002.88 1002.49 1002.61 1002.90 1003.29 1004.52 1003.93 1004.03 1004.47 1004.88 1005.66
1024.94 1024.44 1024.03 1023.49 1023.20 1022.57 1021.61 1020.95 1020.08 1019.36 1018.90 1017.94 1016.51 1015.16 1015.02 1014.02 1013.46 1012.71 1012.85 1011.03 1009.98 1008.83 1007.16 1006.14 1004.87 1003.73 1002.92 1002.67 1002.42 1002.15 1001.95 1001.68 1001.36 1001.26 1000.56 1000.71 1000.94 1001.18 1001.51 1001.64 1002.57 1003.41 1004.79
1025.35 1025.03 1024.70 1024.11 1023.41 1022.84 1022.23 1021.62 1020.89 1019.92 1018.77 1017.79 1017.06 1016.36 1015.31 1014.16 1013.63 1012.89 1012.56 1011.28 1009.73 1008.68 1007.62 1005.97 1004.54 1003.36 1002.55 1001.66 1001.17 1001.22 1000.90 1000.34 1000.11 999.74 999.21 998.89 999.12 998.94 999.64 1000.47 1000.46 1000.72 1000.61
1025.71 1025.21 1024.83 1024.23 1023.46 1022.71 1021.96 1021.18 1020.29 1019.59 1018.78 1017.92 1017.17 1016.51 1015.50 1014.41 1013.28 1012.38 1011.48 1010.28 1008.77 1007.81 1006.71 1005.69 1004.62 1003.32 1002.45 1002.06 1001.24 1000.26 999.49 998.81 998.16 998.23 998.12 997.44 997.28 996.86 997.53 997.76 997.91 998.67 999.60
1025.74 1025.40 1024.78 1024.35 1023.60 1022.91 1022.04 1021.14 1020.38 1019.62 1018.69 1017.84 1017.11 1016.03 1014.85 1013.78 1012.86 1012.01 1010.86 1009.74 1008.67 1007.63 1006.53 1005.43 1004.53 1003.45 1002.75 1002.35 1001.53 999.97 998.33 996.41 996.10 996.09 996.27 996.15 995.82 995.90 995.77 996.68 997.51 998.79 999.54
1026.03 1025.60 1025.12 1024.67 1023.98 1022.97 1022.04 1021.16 1020.43 1019.47 1018.52 1017.73 1016.85 1016.00 1014.97 1013.69 1012.77 1012.33 1011.32 1009.70 1008.38 1007.27 1005.80 1004.53 1003.90 1003.12 1002.29 1001.73 1001.01 999.97 997.98 995.87 996.32 995.65 995.18 994.78 994.62 994.80 994.96 995.11 995.52 995.93 996.96
1026.71 1026.15 1025.46 1024.77 1023.92 1022.88 1022.15 1021.41 1020.35 1019.33 1018.49 1017.57 1016.67 1015.95 1015.11 1014.37 1013.48 1012.65 1011.89 1010.79 1009.61 1007.61 1005.60 1003.92 1002.90 1002.25 1001.80 1001.23 1000.39 999.27 997.63 997.09 995.81 994.69 993.80 993.39 993.47 993.65 993.60 994.05 993.89 994.16 994.86
1027.01 1026.35 1025.48 1024.62 1023.82 1023.06 1022.34 1021.36 1020.49 1019.65 1018.87 1018.03 1017.06 1016.20 1015.42 1014.49 1013.57 1012.64 1011.81 1011.08 1009.62 1008.10 1006.02 1004.33 1002.75 1001.76 1000.76 999.90 999.24 997.99 997.02 996.32 995.11 994.04 993.09 991.92 992.23 992.05 992.43 992.54 992.51 992.62 992.30
1027.17 1026.27 1025.26 1024.56 1023.95 1023.33 1022.53 1021.68 1020.80 1020.07 1019.41 1018.36 1017.22 1016.14 1015.29 1014.53 1013.58 1012.64 1011.66 1010.33 1009.31 1007.89 1006.06 1004.17 1002.46 1000.81 999.40 998.21 997.34 996.53 996.01 995.13 994.02 993.11 991.86 991.02 991.07 991.14 991.36 991.78 992.11 992.46 992.72
1027.22 1026.25 1025.46 1024.83 1024.21 1023.55 1022.92 1022.09 1021.46 1020.70 1019.80 1018.60 1017.47 1016.51 1015.67 1014.70 1013.59 1012.44 1011.28 1010.09 1008.77 1007.16 1005.31 1003.32 1001.66 999.83 998.27 996.97 995.96 995.17 994.42 993.56 992.61 991.34 990.67 990.04 989.97 990.30 990.61 991.00 991.69 992.14 993.02
1027.48 1026.71 1025.94 1025.29 1024.56 1023.76 1023.10 1022.45 1021.74 1021.07 1020.23 1019.02 1018.14 1017.27 1016.05 1015.03 1014.01 1013.00 1011.63 1010.20 1008.94 1007.78 1005.95 1003.65 1001.26 999.27 997.23 995.86 994.84 994.05 993.27 992.29 991.35 990.49 989.75 989.22 989.17 989.54 989.66 990.14 990.46 991.14 991.73
1027.88 1027.06 1026.33 1025.62 1024.87 1024.14 1023.28 1022.34 1022.15 1021.22 1020.34 1019.51 1018.82 1017.83 1016.64 1016.14 1014.55 1013.43 1012.09 1010.88 1009.71 1008.14 1007.07 1005.74 1003.93 1002.42 1000.60 998.91 997.08 994.20 992.70 991.72 990.86 990.01 989.29 988.98 988.72 988.83 989.02 989.40 989.63 989.91 990.33
1028.39 1027.54 1026.82 1026.17 1025.57 1024.86 1024.01 1023.11 1021.55 1020.65 1020.48 1019.68 1019.03 1018.09 1017.14 1016.27 1014.72 1013.66 1012.53 1011.46 1010.21 1008.86 1008.37 1007.25 1005.94 1004.46 1002.80 1001.11 999.56 997.61 995.45 992.11 990.89 989.89 989.07 988.65 988.32 988.32 988.35 988.53 988.92 989.31 989.32
1028.53 1027.87 1027.24 1026.70 1026.11 1025.43 1024.73 1023.98 1023.15 1021.74 1019.97 1019.40 1019.15 1018.40 1017.63 1016.56 1015.32 1014.34 1013.26 1012.26 1010.53 1009.38 1009.28 1008.51 1007.14 1005.72 1004.25 1002.68 1001.01 999.22 997.09 994.85 992.15 989.83 989.00 988.48 988.05 987.90 987.88 987.71 987.99 988.12 988.68
1028.73 1028.10 1027.63 1026.98 1026.33 1025.75 1025.01 1024.35 1023.57 1022.64 1021.59 1020.32 1019.18 1018.62 1018.29 1017.00 1016.10 1015.24 1014.24 1013.82 1013.09 1011.84 1010.72 1009.44 1008.34 1006.80 1005.28 1003.97 1002.43 1000.53 998.76 996.63 994.47 992.31 989.38 988.55 987.94 987.53 987.28 987.13 987.22 987.31 987.74
1028.69 1028.36 1027.91 1027.36 1026.74 1026.04 1025.29 1024.73 1024.05 1023.31 1022.37 1021.47 1020.51 1019.73 1018.47 1017.19 1016.62 1015.96 1015.32 1014.78 1014.08 1013.21 1011.92 1010.55 1009.23 1008.01 1006.42 1005.08 1003.51 1001.84 999.82 997.78 995.88 994.13 992.44 990.12 987.90 987.42 986.98 986.78 986.60 986.71 987.02
1028.86 1028.41 1028.05 1027.62 1027.09 1026.53 1025.90 1025.19 1024.59 1023.85 1023.06 1022.33 1021.53 1020.66 1019.12 1018.60 1017.87 1017.23 1016.35 1015.50 1014.70 1013.79 1012.63 1011.39 1009.93 1009.02 1007.43 1006.16 1004.80 1003.12 1001.38 999.50 997.81 995.78 993.89 992.10 990.51 987.62 986.83 986.45 986.22 986.28 986.52
1028.90 1028.71 1028.22 1028.00 1027.36 1026.68 1025.96 1025.40 1024.89 1024.22 1023.48 1022.74 1021.74 1020.85 1019.83 1019.29 1018.45 1017.82 1017.08 1016.12 1015.24 1014.41 1013.49 1012.24 1010.74 1009.64 1008.41 1007.28 1005.90 1004.32 1002.67 1000.84 998.93 997.03 995.09 993.22 991.40 989.41 986.82 986.36 986.07 986.13 986.25
1028.93 1028.63 1028.23 1027.89 1027.41 1026.73 1026.10 1025.49 1024.90 1024.32 1023.62 1022.78 1021.96 1020.98 1020.17 1019.43 1018.72 1017.93 1017.10 1016.27 1015.38 1014.42 1013.49 1012.50 1011.22 1009.86 1008.80 1007.85 1006.61 1005.38 1003.82 1001.97 1000.25 998.69 995.94 994.12 992.25 990.33 988.51 986.66 986.01 985.92 986.17
1028.64 1028.48 1028.40 1027.80 1027.17 1026.61 1026.02 1025.39 1024.79 1024.13 1023.46 1022.66 1021.83 1020.95 1020.12 1019.33 1018.61 1017.79 1016.97 1016.08 1015.15 1014.23 1013.40 1012.38 1011.21 1010.13 1008.96 1007.81 1006.65 1005.30 1004.12 1002.60 1000.59 998.68 996.52 994.95 992.85 991.05 989.40 987.77 986.81 986.03 985.99
1028.23 1028.27 1028.08 1027.43 1026.84 1026.29 1025.66 1025.05 1024.38 1023.65 1023.00 1022.28 1021.43 1020.69 1019.84 1019.06 1018.20 1017.38 1016.59 1015.72 1014.78 1013.93 1013.04 1012.04 1010.94 1009.89 1008.88 1007.82 1006.44 1004.95 1003.54 1002.17 1000.39 998.38 996.70 995.33 993.64 991.95 990.56 988.83 987.51 986.93 986.65
1027.73 1027.55 1027.17 1026.70 1026.21 1025.59 1025.07 1024.52 1023.85 1023.16 1022.47 1021.72 1021.02 1020.27 1019.52 1018.66 1017.78 1016.91 1016.04 1015.20 1014.33 1013.47 1012.62 1011.61 1010.55 1009.53 1008.43 1007.14 1005.76 1004.40 1002.94 1001.50 999.67 998.23 997.05 995.97 994.62 993.08 991.37 989.96 988.53 987.78 987.54
Wind_Speed
14 13 13 12 12 12 12 13 14 14 15 15 15 14 14 15 12 14 15 16 16 16 16 16 19 18 13 13 13 13 15 15 17 14 13 10 10 12 9 9 9 11 10
13 13 13 13 14 14 14 15 15 15 14 15 16 15 13 13 14 16 15 14 16 17 17 17 19 14 20 18 14 18 17 17 15 20 14 13 14 12 12 12 11 9 10
13 13 13 13 15 16 16 16 15 16 16 15 15 15 16 15 14 14 15 16 17 18 18 19 19 19 19 15 17 17 15 13 15 15 17 14 14 4 6 4 8 9 7
13 14 14 15 16 15 15 16 15 16 16 16 16 15 15 15 15 13 15 17 17 17 19 19 21 20 22 20 18 19 16 16 16 16 13 14 11 5 9 11 5 4 8
12 12 13 14 14 14 14 14 14 14 14 15 17 14 15 14 10 17 17 18 19 19 19 20 18 20 24 21 14 17 16 15 15 14 14 14 6 4 13 8 13 10 9
11 12 13 13 14 14 14 15 16 15 15 15 15 16 16 11 23 23 21 17 19 19 18 19 19 17 18 23 25 30 26 17 16 14 15 17 19 15 14 15 14 6 8
10 12 13 13 13 13 14 13 14 14 15 15 16 15 16 16 23 24 25 17 19 18 19 18 18 15 15 15 19 23 29 31 34 25 19 18 18 18 17 15 17 14 12
10 12 12 14 14 14 13 14 14 13 14 14 14 16 17 15 25 24 25 19 19 21 20 20 21 22 20 18 19 20 19 20 22 18 24 21 19 19 18 20 20 16 4
11 12 13 14 14 14 14 14 13 13 13 13 13 17 19 18 27 26 23 17 19 22 20 21 19 21 24 24 21 22 23 24 15 24 27 29 30 24 19 12 8 9 6
12 13 13 13 14 14 14 14 13 12 13 12 14 14 18 17 25 29 27 16 18 18 22 21 22 20 23 22 16 19 22 24 15 7 8 18 23 21 19 20 14 14 8
12 12 12 12 13 13 14 12 13 13 14 15 16 14 14 16 18 27 31 18 15 17 18 18 15 23 25 25 25 19 22 20 21 13 12 11 11 13 12 15 16 15 12
11 11 11 11 10 11 12 12 13 12 12 13 13 12 10 13 21 23 31 33 31 19 19 16 17 28 31 32 28 30 31 26 14 14 12 13 11 9 10 12 17 16 16
11 10 10 11 11 12 12 12 10 11 10 11 11 11 12 11 12 26 31 33 31 22 19 28 40 38 35 27 26 26 22 14 14 14 14 12 11 9 8 4 2 4 3
9 10 10 10 11 10 9 9 8 9 10 10 11 12 12 12 12 14 14 15 23 21 26 21 28 32 33 27 19 17 12 12 13 13 14 9 5 4 8 7 8 8 5
9 9 10 8 9 10 9 8 9 10 12 11 9 11 12 13 14 26 25 18 17 21 23 17 16 14 13 12 10 11 11 11 11 11 11 9 7 7 7 7 7 8 9
9 8 8 8 8 9 9 10 13 16 19 18 21 18 10 23 31 31 32 33 31 33 14 14 15 15 15 15 17 14 9 10 10 10 10 9 8 8 8 6 8 9 12
7 9 7 8 8 9 9 10 14 11 17 17 21 23 23 27 31 31 32 32 26 23 12 14 13 15 15 16 15 15 18 13 11 10 10 9 7 7 7 8 9 9 10
6 8 6 7 7 7 8 8 9 11 14 11 15 21 23 27 30 27 30 24 16 15 12 13 14 14 15 16 16 16 17 15 17 10 9 9 7 7 7 8 9 11 12
5 5 5 6 6 8 7 8 8 9 10 11 11 14 16 26 26 24 26 11 13 13 13 13 14 14 14 15 15 15 16 16 15 18 10 9 7 7 9 9 10 13 13
3 7 6 4 6 6 6 7 8 8 9 10 10 11 13 14 12 12 11 11 11 12 12 13 13 14 14 15 16 16 16 16 16 14 14 17 8 7 8 9 9 9 10
3 4 7 5 5 5 6 6 7 8 8 9 10 11 26 12 10 10 11 10 11 12 13 13 13 13 13 14 15 15 16 15 15 15 14 15 17 10 7 6 7 8 8
2 4 4 4 5 6 6 6 7 7 8 9 10 10 23 8 9 9 10 10 11 10 10 12 12 12 12 13 15 15 16 16 16 17 16 15 15 17 8 6 6 6 7
2 3 4 4 4 6 6 5 5 7 8 9 9 10 9 9 9 10 10 10 10 10 11 11 12 12 12 13 13 13 14 15 16 17 16 16 14 14 14 9 6 6 7
3 3 4 5 4 4 5 6 7 8 8 8 9 9 9 9 10 11 11 10 10 10 10 11 11 15 15 14 13 13 13 15 16 16 19 16 14 15 13 12 7 5 7
3 4 4 5 5 6 6 6 7 7 7 8 9 8 9 9 10 10 10 10 10 10 12 12 11 15 17 22 20 21 22 25 23 23 14 16 17 18 14 11 7 2 2
3 4 5 4 5 5 5 6 7 7 8 8 8 9 9 10 10 10 10 11 10 12 14 11 14 19 21 17 18 23 25 25 22 24 13 13 14 13 12 13 12 4 3
Wind_Direction
1 357 359 4 12 8 359 354 347 341 341 336 330 325 321 315 281 246 244 245 242 240 236 234 236 233 233 234 236 230 233 229 243 245 244 232 220 218 214 211 215 210 214
350 353 360 355 4 4 355 352 342 338 341 336 325 324 323 322 320 313 273 255 256 255 248 242 242 238 235 234 233 235 234 230 234 247 243 240 225 217 217 206 212 212 209
352 354 354 356 2 355 346 351 340 333 337 328 326 326 321 320 318 315 308 310 277 255 250 249 249 242 243 237 237 238 236 234 233 232 240 233 229 175 198 208 206 214 201
352 356 357 357 353 344 339 337 330 337 327 326 319 323 321 320 320 320 336 324 310 308 274 252 249 246 247 244 239 243 236 231 227 237 239 234 228 207 211 206 217 215 196
351 352 352 345 339 334 334 330 328 323 326 319 315 328 323 322 327 337 327 322 316 307 297 292 261 251 248 245 246 247 241 237 237 234 236 236 197 181 208 206 219 197 215
347 349 344 342 335 333 332 330 330 330 323 323 327 331 321 322 324 327 319 315 311 304 299 294 291 274 254 247 240 241 242 246 238 237 244 229 224 218 218 209 209 163 209
347 344 341 338 334 333 327 322 321 324 326 329 325 319 318 320 320 320 316 306 305 300 296 297 292 285 284 272 251 243 245 243 242 249 247 236 235 218 219 212 207 206 206
347 344 342 339 334 330 329 329 327 328 327 324 323 321 317 315 320 318 313 309 310 305 302 299 296 296 291 290 287 274 259 242 237 237 246 251 240 226 210 210 205 206 67
354 345 343 338 334 334 333 333 332 327 327 325 324 323 323 322 325 320 321 315 310 306 304 301 296 294 296 297 293 289 279 266 251 231 234 242 243 240 214 204 196 175 193
352 341 339 338 335 332 331 334 325 326 326 329 326 326 323 320 334 331 330 317 305 306 305 303 294 289 296 295 293 294 275 273 277 263 237 246 242 241 213 210 201 202 193
341 335 334 334 333 335 334 327 331 333 333 336 334 331 326 325 324 331 335 335 323 312 301 299 299 299 298 291 287 285 283 298 290 260 241 242 239 233 220 214 209 205 194
336 330 329 332 337 337 332 331 335 334 332 329 326 326 328 333 331 333 336 329 324 317 306 303 296 293 290 289 289 282 283 288 281 277 261 252 241 224 216 208 212 207 211
329 327 333 333 334 334 335 332 334 336 332 328 332 333 335 333 333 335 332 330 326 318 306 300 299 293 283 282 278 279 278 275 270 262 260 254 246 228 219 188 102 121 54
327 334 335 334 330 332 330 332 328 328 326 332 335 336 331 337 333 336 333 329 327 323 319 305 290 279 275 270 277 271 261 260 259 257 258 252 228 170 199 185 191 176 163
336 333 335 330 330 327 329 326 325 321 323 329 332 336 331 338 336 338 340 338 338 333 333 330 336 326 301 280 269 267 266 267 268 269 264 253 220 197 199 187 189 177 195
336 337 331 328 332 329 326 320 319 321 329 334 339 340 334 336 337 339 342 344 347 350 344 344 342 340 338 331 334 306 283 273 272 272 265 250 227 209 201 192 196 196 203
333 326 327 329 328 328 329 328 325 329 331 337 341 340 347 335 345 342 344 345 350 359 351 344 341 339 337 334 333 327 330 307 285 273 271 260 237 225 203 196 200 201 208
316 305 319 322 321 320 322 319 318 322 328 333 339 340 348 340 348 347 348 346 344 1 354 342 337 337 337 335 333 331 329 327 322 285 276 265 245 228 218 212 207 201 204
321 323 322 318 316 317 316 323 322 321 321 320 328 336 342 342 346 346 355 354 343 340 340 339 336 332 337 334 332 330 331 331 328 336 295 275 257 233 233 225 218 209 202
302 312 324 310 316 317 322 324 322 323 323 323 326 327 325 345 345 344 346 342 339 333 333 333 335 328 336 335 332 331 332 336 337 340 334 325 273 247 242 236 220 209 206
311 317 317 319 311 309 311 318 317 317 316 316 312 319 330 347 332 332 328 336 333 333 330 329 330 328 332 333 331 330 332 330 333 333 335 329 329 284 250 239 227 216 209
321 306 309 301 302 310 313 312 311 310 308 308 311 313 329 327 323 322 321 323 325 324 323 322 323 326 327 331 329 326 328 328 332 329 332 329 321 322 278 248 229 211 194
300 305 310 297 284 296 303 300 296 300 302 304 306 310 316 318 317 315 314 315 317 317 320 319 318 320 323 323 323 320 323 322 321 321 323 326 322 320 322 288 234 204 189
291 289 284 286 289 286 283 287 294 292 295 297 300 302 306 308 308 308 309 310 311 313 316 314 314 313 319 318 319 314 317 316 317 314 329 323 322 325 320 314 299 243 190
280 282 273 273 277 283 288 287 284 281 286 292 297 297 301 301 302 303 304 306 308 309 314 311 310 313 313 314 309 311 316 321 317 321 333 329 327 329 325 318 309 277 151
266 262 262 269 274 267 264 277 282 283 284 289 291 293 295 297 297 299 302 305 307 311 307 308 305 308 309 307 307 313 317 323 324 325 340 334 333 332 336 329 324 310 224